Location: Saint-Restitut
(44.3351°N, 4.7915°E)
Time: 02:41:53
(UTC+00:00)

SL-08 ROCKET BODY - Pass Details

Date: 03 February 2023
Orbit: 896 x 963 km, 83.0° (Epoch: 27 March)

Event Time Altitude Azimuth Distance (km) Brightness Sun altitude
Rises 17:31:16 0° 354° (N) 3,544 7.3 -7.4°
Reaches altitude 10° 17:33:46 10° 358° (N) 2,592 6.6 -7.8°
Maximum altitude 17:39:36 63° 79° (E) 997 4.3 -8.8°
Drops below altitude 10° 17:45:22 10° 161° (SSE) 2,562 6.7 -9.8°
Sets 17:47:50 0° 164° (SSE) 3,500 7.4 -10.2°
